Location: Springfield
(37.2150°N, 93.2980°W)
Time: 23:03:24
(UTC-06:00)

ISS - Visible Passes

Search period start: 17 January 2026 00:00
Search period end: 27 January 2026 00:00
Orbit: 413 x 424 km, 51.6° (Epoch: 17 January)

Date Brightness Start Highest point End Pass type
(mag) Time Alt. Az. Time Alt. Az. Time Alt. Az.
17 Jan -1.5 17:48:47 10° WNW 17:51:02 17° NNW 17:53:18 10° NNE visible
24 Jan -1.4 18:44:23 10° N 18:45:31 12° NNE 18:45:31 12° NNE visible
25 Jan -1.1 19:32:04 10° NW 19:32:43 14° NNW 19:32:43 14° NNW visible
26 Jan -2.4 18:44:19 10° NNW 18:47:03 23° NNE 18:47:04 23° NNE visible
